Location: Doverdale
(52.2833°N, 2.2000°W)
Time: 12:02:38
(UTC+00:00)

SL-4 R/B - Pass Details

Date: 29 October 2020
Orbit: 427 x 665 km, 51.6° (Epoch: 24 November)

Event Time Altitude Azimuth Distance (km) Brightness Sun altitude
Rises 17:27:00 0° 271° (W) 2,412 7.2 -7.0°
Reaches altitude 10° 17:29:04 10° 271° (W) 1,561 5.9 -7.3°
Maximum altitude 17:32:34 81° 185° (S) 469 1.7 -7.9°
Drops below altitude 10° 17:36:16 10° 98° (E) 1,655 3.9 -8.4°
Enters shadow 17:36:18 10° 98° (E) 1,664 3.9 -8.4°
